STARLINK-32773 (62571 NORAD) Tracking and Keplerian Element Data

This shows tracking and keplerian element data for the satellite.

Feedback or suggestion? Click here.




ElementValue
Catalog62571
NameSTARLINK-32773
Epoch Orbit493
Epoch Day35.16668981
Epoch Year2025
RAAN27.5887
Inclination43.0005
Eccentricity0.0001396
Argument of Perigee262.7916
Mean Anonmoly88.6005
Mean Motion15.50099939
Decay Rate-0.01546757
L11 62571U 25006T 25035.16668981 -.01546757 00000+0 -29709-1 0 9998
L22 62571 43.0005 27.5887 0001396 262.7916 88.6005 15.50099939 4937



Live tracking and technical data element details for STARLINK-32773 (NORAD 62571). STARLINK-32773 can be tracked NOW for your location showing map with azimuth and elevation plus other details from your city location.







IsCatalogInMostPopularTable: catalog: 62571, numindb: 27
Update: records affected: 1



GetName: 62571 STARLINK-32773

Hit Count: updated at: Mon, 19 May 2025 02:08:19 GMT